Location: Gönnheim
(49.4488°N, 8.2383°E)
Time: 10:07:49
(UTC+00:00)

Cosmos 2181 Rocket - Pass Details

Date: 19 May 2025
Orbit: 952 x 1013 km, 82.9° (Epoch: 23 June)

Event Time Altitude Azimuth Distance (km) Brightness Sun altitude
Exits shadow 20:58:42 15° 170° (S) 2,369 5.5 -13.5°
Maximum altitude 21:03:52 62° 93° (E) 1,110 4.1 -14.0°
Drops below altitude 10° 21:10:09 10° 15° (NNE) 2,784 7.0 -14.5°
Sets 21:12:44 0° 12° (NNE) 3,745 7.8 -14.8°
